Year,Month,Day,Hour,Minute,Value (Times are PST for temperature in C)
2016,09,13,00,00,17.20
2016,09,13,00,01,17.20
2016,09,13,00,02,17.20
2016,09,13,00,03,17.20
2016,09,13,00,04,17.20
2016,09,13,00,05,17.20
2016,09,13,00,06,17.10
2016,09,13,00,07,17.10
2016,09,13,00,08,17.00
2016,09,13,00,09,17.00
2016,09,13,00,10,16.90
2016,09,13,00,11,16.90
2016,09,13,00,12,16.90
2016,09,13,00,13,16.80
2016,09,13,00,14,16.80
2016,09,13,00,15,16.80
2016,09,13,00,16,16.80
2016,09,13,00,17,16.80
2016,09,13,00,18,16.70
2016,09,13,00,19,16.70
2016,09,13,00,20,16.70
2016,09,13,00,21,16.80
2016,09,13,00,22,16.80
2016,09,13,00,23,16.70
2016,09,13,00,24,16.60
2016,09,13,00,25,16.50
2016,09,13,00,26,16.50
2016,09,13,00,27,16.40
2016,09,13,00,28,16.30
2016,09,13,00,29,16.30
2016,09,13,00,30,16.20
2016,09,13,00,31,16.20
2016,09,13,00,32,16.10
2016,09,13,00,33,16.10
2016,09,13,00,34,16.10
2016,09,13,00,35,16.20
2016,09,13,00,36,16.20
2016,09,13,00,37,16.20
2016,09,13,00,38,16.10
2016,09,13,00,39,16.00
2016,09,13,00,40,15.90
2016,09,13,00,41,15.90
2016,09,13,00,42,15.80
2016,09,13,00,43,15.70
2016,09,13,00,44,15.60
2016,09,13,00,45,15.50
2016,09,13,00,46,15.40
2016,09,13,00,47,15.40
2016,09,13,00,48,15.40
2016,09,13,00,49,15.30
2016,09,13,00,50,15.20
2016,09,13,00,51,15.20
2016,09,13,00,52,15.20
2016,09,13,00,53,15.20
2016,09,13,00,54,15.30
2016,09,13,00,55,15.30
2016,09,13,00,56,15.30
2016,09,13,00,57,15.30
2016,09,13,00,58,15.30
2016,09,13,00,59,15.40
2016,09,13,01,00,15.40
2016,09,13,01,01,15.40
2016,09,13,01,02,15.40
2016,09,13,01,03,15.40
2016,09,13,01,04,15.40
2016,09,13,01,05,15.50
2016,09,13,01,06,15.60
2016,09,13,01,07,15.60
2016,09,13,01,08,15.60
2016,09,13,01,09,15.70
2016,09,13,01,10,15.70
2016,09,13,01,11,15.60
2016,09,13,01,12,15.60
2016,09,13,01,13,15.60
2016,09,13,01,14,15.60
2016,09,13,01,15,15.60
2016,09,13,01,16,15.50
2016,09,13,01,17,15.50
2016,09,13,01,18,15.50
2016,09,13,01,19,15.50
2016,09,13,01,20,15.50
2016,09,13,01,21,15.50
2016,09,13,01,22,15.50
2016,09,13,01,23,15.50
2016,09,13,01,24,15.50
2016,09,13,01,25,15.50
2016,09,13,01,26,15.50
2016,09,13,01,27,15.40
2016,09,13,01,28,15.40
2016,09,13,01,29,15.40
2016,09,13,01,30,15.40
2016,09,13,01,31,15.30
2016,09,13,01,32,15.30
2016,09,13,01,33,15.20
2016,09,13,01,34,15.20
2016,09,13,01,35,15.10
2016,09,13,01,36,15.10
2016,09,13,01,37,15.10
2016,09,13,01,38,15.20
2016,09,13,01,39,15.20
2016,09,13,01,40,15.20
2016,09,13,01,41,15.20
2016,09,13,01,42,15.20
2016,09,13,01,43,15.20
2016,09,13,01,44,15.30
2016,09,13,01,45,15.20
2016,09,13,01,46,15.20
2016,09,13,01,47,15.10
2016,09,13,01,48,15.00
2016,09,13,01,49,15.00
2016,09,13,01,50,14.90
2016,09,13,01,51,14.80
2016,09,13,01,52,14.70
2016,09,13,01,53,14.70
2016,09,13,01,54,14.70
2016,09,13,01,55,14.70
2016,09,13,01,56,14.70
2016,09,13,01,57,14.70
2016,09,13,01,58,14.80
2016,09,13,01,59,14.80
2016,09,13,02,00,14.80
2016,09,13,02,01,14.80
2016,09,13,02,02,14.80
2016,09,13,02,03,14.90
2016,09,13,02,04,14.90
2016,09,13,02,05,14.90
2016,09,13,02,06,14.90
2016,09,13,02,07,14.90
2016,09,13,02,08,14.90
2016,09,13,02,09,14.90
2016,09,13,02,10,14.90
2016,09,13,02,11,14.90
2016,09,13,02,12,14.90
2016,09,13,02,13,14.90
2016,09,13,02,14,14.90
2016,09,13,02,15,14.90
2016,09,13,02,16,14.80
2016,09,13,02,17,14.80
2016,09,13,02,18,14.70
2016,09,13,02,19,14.60
2016,09,13,02,20,14.60
2016,09,13,02,21,14.50
2016,09,13,02,22,14.40
2016,09,13,02,23,14.40
2016,09,13,02,24,14.30
2016,09,13,02,25,14.20
2016,09,13,02,26,14.20
2016,09,13,02,27,14.20
2016,09,13,02,28,14.20
2016,09,13,02,29,14.30
2016,09,13,02,30,14.40
2016,09,13,02,31,14.40
2016,09,13,02,32,14.50
2016,09,13,02,33,14.60
2016,09,13,02,34,14.60
2016,09,13,02,35,14.70
2016,09,13,02,36,14.70
2016,09,13,02,37,14.80
2016,09,13,02,38,15.00
2016,09,13,02,39,15.10
2016,09,13,02,40,15.20
2016,09,13,02,41,15.30
2016,09,13,02,42,15.40
2016,09,13,02,43,15.60
2016,09,13,02,44,15.70
2016,09,13,02,45,15.70
2016,09,13,02,46,15.80
2016,09,13,02,47,15.90
2016,09,13,02,48,16.10
2016,09,13,02,49,16.20
2016,09,13,02,50,16.20
2016,09,13,02,51,16.30
2016,09,13,02,52,16.30
2016,09,13,02,53,16.30
2016,09,13,02,54,16.30
2016,09,13,02,55,16.30
2016,09,13,02,56,16.30
2016,09,13,02,57,16.30
2016,09,13,02,58,16.40
2016,09,13,02,59,16.60
2016,09,13,03,00,16.80
2016,09,13,03,01,17.00
2016,09,13,03,02,17.10
2016,09,13,03,03,17.20
2016,09,13,03,04,17.30
2016,09,13,03,05,17.30
2016,09,13,03,06,17.40
2016,09,13,03,07,17.40
2016,09,13,03,08,17.40
2016,09,13,03,09,17.50
2016,09,13,03,10,17.50
2016,09,13,03,11,17.50
2016,09,13,03,12,17.50
2016,09,13,03,13,17.40
2016,09,13,03,14,17.40
2016,09,13,03,15,17.30
2016,09,13,03,16,17.20
2016,09,13,03,17,17.10
2016,09,13,03,18,16.70
2016,09,13,03,19,16.30
2016,09,13,03,20,16.00
2016,09,13,03,21,15.80
2016,09,13,03,22,15.60
2016,09,13,03,23,15.50
2016,09,13,03,24,15.50
2016,09,13,03,25,15.40
2016,09,13,03,26,15.40
2016,09,13,03,27,15.30
2016,09,13,03,28,15.20
2016,09,13,03,29,15.10
2016,09,13,03,30,15.00
2016,09,13,03,31,14.90
2016,09,13,03,32,14.80
2016,09,13,03,33,14.50
2016,09,13,03,34,14.20
2016,09,13,03,35,13.90
2016,09,13,03,36,13.70
2016,09,13,03,37,13.50
2016,09,13,03,38,13.40
2016,09,13,03,39,13.30
2016,09,13,03,40,13.30
2016,09,13,03,41,13.30
2016,09,13,03,42,13.40
2016,09,13,03,43,13.40
2016,09,13,03,44,13.50
2016,09,13,03,45,13.60
2016,09,13,03,46,13.70
2016,09,13,03,47,13.80
2016,09,13,03,48,14.00
2016,09,13,03,49,14.10
2016,09,13,03,50,14.20
2016,09,13,03,51,14.30
2016,09,13,03,52,14.40
2016,09,13,03,53,14.60
2016,09,13,03,54,14.70
2016,09,13,03,55,14.90
2016,09,13,03,56,15.10
2016,09,13,03,57,15.20
2016,09,13,03,58,15.30
2016,09,13,03,59,15.40
2016,09,13,04,00,15.60
2016,09,13,04,01,15.70
2016,09,13,04,02,15.80
2016,09,13,04,03,15.80
2016,09,13,04,04,15.90
2016,09,13,04,05,16.00
2016,09,13,04,06,16.00
2016,09,13,04,07,16.10
2016,09,13,04,08,16.00
2016,09,13,04,09,16.00
2016,09,13,04,10,15.90
2016,09,13,04,11,15.80
2016,09,13,04,12,15.80
2016,09,13,04,13,15.70
2016,09,13,04,14,15.70
2016,09,13,04,15,15.60
2016,09,13,04,16,15.60
2016,09,13,04,17,15.50
2016,09,13,04,18,15.50
2016,09,13,04,19,15.40
2016,09,13,04,20,15.40
2016,09,13,04,21,15.50
2016,09,13,04,22,15.60
2016,09,13,04,23,15.60
2016,09,13,04,24,15.60
2016,09,13,04,25,15.60
2016,09,13,04,26,15.60
2016,09,13,04,27,15.60
2016,09,13,04,28,15.60
2016,09,13,04,29,15.50
2016,09,13,04,30,15.50
2016,09,13,04,31,15.50
2016,09,13,04,32,15.50
2016,09,13,04,33,15.40
2016,09,13,04,34,15.40
2016,09,13,04,35,15.30
2016,09,13,04,36,15.30
2016,09,13,04,37,15.30
2016,09,13,04,38,15.30
2016,09,13,04,39,15.30
2016,09,13,04,40,15.30
2016,09,13,04,41,15.20
2016,09,13,04,42,15.20
2016,09,13,04,43,15.10
2016,09,13,04,44,14.90
2016,09,13,04,45,14.80
2016,09,13,04,46,14.70
2016,09,13,04,47,14.50
2016,09,13,04,48,14.40
2016,09,13,04,49,14.10
2016,09,13,04,50,13.80
2016,09,13,04,51,13.60
2016,09,13,04,52,13.40
2016,09,13,04,53,13.30
2016,09,13,04,54,13.20
2016,09,13,04,55,13.20
2016,09,13,04,56,13.30
2016,09,13,04,57,13.40
2016,09,13,04,58,13.40
2016,09,13,04,59,13.50
2016,09,13,05,00,13.50
2016,09,13,05,01,13.60
2016,09,13,05,02,13.70
2016,09,13,05,03,13.70
2016,09,13,05,04,13.70
2016,09,13,05,05,13.80
2016,09,13,05,06,13.90
2016,09,13,05,07,13.90
2016,09,13,05,08,13.90
2016,09,13,05,09,14.00
2016,09,13,05,10,14.10
2016,09,13,05,11,14.10
2016,09,13,05,12,14.20
2016,09,13,05,13,14.30
2016,09,13,05,14,14.30
2016,09,13,05,15,14.40
2016,09,13,05,16,14.40
2016,09,13,05,17,14.40
2016,09,13,05,18,14.40
2016,09,13,05,19,14.30
2016,09,13,05,20,14.00
2016,09,13,05,21,13.80
2016,09,13,05,22,13.70
2016,09,13,05,23,13.50
2016,09,13,05,24,13.40
2016,09,13,05,25,13.30
2016,09,13,05,26,13.30
2016,09,13,05,27,13.20
2016,09,13,05,28,13.10
2016,09,13,05,29,13.00
2016,09,13,05,30,12.90
2016,09,13,05,31,12.90
2016,09,13,05,32,12.90
2016,09,13,05,33,13.00
2016,09,13,05,34,13.00
2016,09,13,05,35,13.00
2016,09,13,05,36,13.00
2016,09,13,05,37,13.10
2016,09,13,05,38,13.10
2016,09,13,05,39,13.00
2016,09,13,05,40,12.90
2016,09,13,05,41,12.80
2016,09,13,05,42,12.80
2016,09,13,05,43,12.70
2016,09,13,05,44,12.70
2016,09,13,05,45,12.70
2016,09,13,05,46,12.70
2016,09,13,05,47,12.80
2016,09,13,05,48,12.70
2016,09,13,05,49,12.70
2016,09,13,05,50,12.70
2016,09,13,05,51,12.70
2016,09,13,05,52,12.70
2016,09,13,05,53,12.70
2016,09,13,05,54,12.70
2016,09,13,05,55,12.70
2016,09,13,05,56,12.70
2016,09,13,05,57,12.70
2016,09,13,05,58,12.60
2016,09,13,05,59,12.60
2016,09,13,06,00,12.60
2016,09,13,06,01,12.60
2016,09,13,06,02,12.60
2016,09,13,06,03,12.60
2016,09,13,06,04,12.60
2016,09,13,06,05,12.50
2016,09,13,06,06,12.50
2016,09,13,06,07,12.50
2016,09,13,06,08,12.50
2016,09,13,06,09,12.60
2016,09,13,06,10,12.60
2016,09,13,06,11,12.60
2016,09,13,06,12,12.60
2016,09,13,06,13,12.60
2016,09,13,06,14,12.60
2016,09,13,06,15,12.70
2016,09,13,06,16,12.70
2016,09,13,06,17,12.70
2016,09,13,06,18,12.60
2016,09,13,06,19,12.60
2016,09,13,06,20,12.60
2016,09,13,06,21,12.70
2016,09,13,06,22,12.70
2016,09,13,06,23,12.70
2016,09,13,06,24,12.80
2016,09,13,06,25,12.80
2016,09,13,06,26,12.80
2016,09,13,06,27,12.90
2016,09,13,06,28,12.90
2016,09,13,06,29,12.90
2016,09,13,06,30,12.90
2016,09,13,06,31,13.00
2016,09,13,06,32,13.00
2016,09,13,06,33,13.10
2016,09,13,06,34,13.10
2016,09,13,06,35,13.10
2016,09,13,06,36,13.10
2016,09,13,06,37,13.20
2016,09,13,06,38,13.20
2016,09,13,06,39,13.20
2016,09,13,06,40,13.20
2016,09,13,06,41,13.20
2016,09,13,06,42,13.20
2016,09,13,06,43,13.30
2016,09,13,06,44,13.30
2016,09,13,06,45,13.30
2016,09,13,06,46,13.30
2016,09,13,06,47,13.20
2016,09,13,06,48,13.20
2016,09,13,06,49,13.30
2016,09,13,06,50,13.30
2016,09,13,06,51,13.30
2016,09,13,06,52,13.30
2016,09,13,06,53,13.30
2016,09,13,06,54,13.30
2016,09,13,06,55,13.40
2016,09,13,06,56,13.40
2016,09,13,06,57,13.40
2016,09,13,06,58,13.40
2016,09,13,06,59,13.40
2016,09,13,07,00,13.40
2016,09,13,07,01,13.30
2016,09,13,07,02,13.30
2016,09,13,07,03,13.30
2016,09,13,07,04,13.30
2016,09,13,07,05,13.30
2016,09,13,07,06,13.40
2016,09,13,07,07,13.50
2016,09,13,07,08,13.50
2016,09,13,07,09,13.60
2016,09,13,07,10,13.60
2016,09,13,07,11,13.70
2016,09,13,07,12,13.70
2016,09,13,07,13,13.80
2016,09,13,07,14,13.80
2016,09,13,07,15,13.80
2016,09,13,07,16,13.80
2016,09,13,07,17,13.80
2016,09,13,07,18,13.90
2016,09,13,07,19,13.90
2016,09,13,07,20,13.90
2016,09,13,07,21,13.90
2016,09,13,07,22,13.90
2016,09,13,07,23,13.90
2016,09,13,07,24,13.90
2016,09,13,07,25,13.90
2016,09,13,07,26,13.90
2016,09,13,07,27,14.00
2016,09,13,07,28,14.00
2016,09,13,07,29,14.10
2016,09,13,07,30,14.10
2016,09,13,07,31,14.10
2016,09,13,07,32,14.20
2016,09,13,07,33,14.20
2016,09,13,07,34,14.20
2016,09,13,07,35,14.30
2016,09,13,07,36,14.30
2016,09,13,07,37,14.30
2016,09,13,07,38,14.40
2016,09,13,07,39,14.50
2016,09,13,07,40,14.50
2016,09,13,07,41,14.60
2016,09,13,07,42,14.70
2016,09,13,07,43,14.80
2016,09,13,07,44,14.80
2016,09,13,07,45,14.80
2016,09,13,07,46,14.90
2016,09,13,07,47,14.90
2016,09,13,07,48,14.90
2016,09,13,07,49,15.00
2016,09,13,07,50,15.00
2016,09,13,07,51,15.00
2016,09,13,07,52,15.10
2016,09,13,07,53,15.10
2016,09,13,07,54,15.10
2016,09,13,07,55,15.10
2016,09,13,07,56,15.10
2016,09,13,07,57,15.20
2016,09,13,07,58,15.20
2016,09,13,07,59,15.20
2016,09,13,08,00,15.30
2016,09,13,08,01,15.30
2016,09,13,08,02,15.30
2016,09,13,08,03,15.20
2016,09,13,08,04,15.20
2016,09,13,08,05,15.20
2016,09,13,08,06,15.20
2016,09,13,08,07,15.20
2016,09,13,08,08,15.20
2016,09,13,08,09,15.20
2016,09,13,08,10,15.30
2016,09,13,08,11,15.30
2016,09,13,08,12,15.30
2016,09,13,08,13,15.30
2016,09,13,08,14,15.20
2016,09,13,08,15,15.20
2016,09,13,08,16,15.20
2016,09,13,08,17,15.10
2016,09,13,08,18,15.10
2016,09,13,08,19,15.10
2016,09,13,08,20,15.10
2016,09,13,08,21,15.00
2016,09,13,08,22,15.10
2016,09,13,08,23,15.10
2016,09,13,08,24,15.10
2016,09,13,08,25,15.10
2016,09,13,08,26,15.20
2016,09,13,08,27,15.20
2016,09,13,08,28,15.20
2016,09,13,08,29,15.20
2016,09,13,08,30,15.20
2016,09,13,08,31,15.20
2016,09,13,08,32,15.20
2016,09,13,08,33,15.30
2016,09,13,08,34,15.30
2016,09,13,08,35,15.40
2016,09,13,08,36,15.50
2016,09,13,08,37,15.60
2016,09,13,08,38,15.70
2016,09,13,08,39,15.80
2016,09,13,08,40,15.90
2016,09,13,08,41,16.00
2016,09,13,08,42,16.10
2016,09,13,08,43,16.10
2016,09,13,08,44,16.20
2016,09,13,08,45,16.10
2016,09,13,08,46,16.10
2016,09,13,08,47,16.00
2016,09,13,08,48,15.80
2016,09,13,08,49,15.40
2016,09,13,08,50,15.00
2016,09,13,08,51,14.70
2016,09,13,08,52,14.50
2016,09,13,08,53,14.40
2016,09,13,08,54,14.30
2016,09,13,08,55,14.10
2016,09,13,08,56,14.00
2016,09,13,08,57,13.90
2016,09,13,08,58,13.80
2016,09,13,08,59,13.70
2016,09,13,09,00,13.70
2016,09,13,09,01,13.70
2016,09,13,09,02,13.70
2016,09,13,09,03,13.80
2016,09,13,09,04,13.90
2016,09,13,09,05,14.00
2016,09,13,09,06,14.00
2016,09,13,09,07,14.00
2016,09,13,09,08,14.00
2016,09,13,09,09,13.90
2016,09,13,09,10,13.90
2016,09,13,09,11,13.90
2016,09,13,09,12,13.90
2016,09,13,09,13,13.90
2016,09,13,09,14,13.80
2016,09,13,09,15,13.70
2016,09,13,09,16,13.80
2016,09,13,09,17,13.80
2016,09,13,09,18,13.80
2016,09,13,09,19,13.80
2016,09,13,09,20,13.90
2016,09,13,09,21,13.90
2016,09,13,09,22,14.00
2016,09,13,09,23,14.10
2016,09,13,09,24,14.20
2016,09,13,09,25,14.20
2016,09,13,09,26,14.30
2016,09,13,09,27,14.40
2016,09,13,09,28,14.50
2016,09,13,09,29,14.50
2016,09,13,09,30,14.50
2016,09,13,09,31,14.50
2016,09,13,09,32,14.50
2016,09,13,09,33,14.40
2016,09,13,09,34,14.40
2016,09,13,09,35,14.40
2016,09,13,09,36,14.40
2016,09,13,09,37,14.40
2016,09,13,09,38,14.40
2016,09,13,09,39,14.30
2016,09,13,09,40,14.20
2016,09,13,09,41,14.10
2016,09,13,09,42,14.10
2016,09,13,09,43,14.00
2016,09,13,09,44,14.10
2016,09,13,09,45,14.30
2016,09,13,09,46,14.50
2016,09,13,09,47,14.70
2016,09,13,09,48,14.80
2016,09,13,09,49,15.00
2016,09,13,09,50,15.00
2016,09,13,09,51,15.10
2016,09,13,09,52,15.10
2016,09,13,09,53,15.20
2016,09,13,09,54,15.20
2016,09,13,09,55,15.30
2016,09,13,09,56,15.30
2016,09,13,09,57,15.30
2016,09,13,09,58,15.30
2016,09,13,09,59,15.30
2016,09,13,10,00,15.30
2016,09,13,10,01,15.30
2016,09,13,10,02,15.30
2016,09,13,10,03,15.20
2016,09,13,10,04,15.30
2016,09,13,10,05,15.30
2016,09,13,10,06,15.30
2016,09,13,10,07,15.30
2016,09,13,10,08,15.30
2016,09,13,10,09,15.20
2016,09,13,10,10,15.20
2016,09,13,10,11,15.10
2016,09,13,10,12,15.00
2016,09,13,10,13,14.90
2016,09,13,10,14,14.80
2016,09,13,10,15,14.80
2016,09,13,10,16,14.80
2016,09,13,10,17,14.90
2016,09,13,10,18,15.00
2016,09,13,10,19,15.10
2016,09,13,10,20,15.20
2016,09,13,10,21,15.40
2016,09,13,10,22,15.50
2016,09,13,10,23,15.70
2016,09,13,10,24,15.80
2016,09,13,10,25,15.90
2016,09,13,10,26,15.90
2016,09,13,10,27,16.00
2016,09,13,10,28,16.10
2016,09,13,10,29,16.20
2016,09,13,10,30,16.20
2016,09,13,10,31,16.20
2016,09,13,10,32,16.20
2016,09,13,10,33,16.00
2016,09,13,10,34,15.80
2016,09,13,10,35,15.60
2016,09,13,10,36,15.60
2016,09,13,10,37,15.60
2016,09,13,10,38,15.70
2016,09,13,10,39,15.80
2016,09,13,10,40,15.90
2016,09,13,10,41,16.00
2016,09,13,10,42,16.10
2016,09,13,10,43,16.20
2016,09,13,10,44,16.20
2016,09,13,10,45,16.30
2016,09,13,10,46,16.40
2016,09,13,10,47,16.40
2016,09,13,10,48,16.40
2016,09,13,10,49,16.40
2016,09,13,10,50,16.40
2016,09,13,10,51,16.50
2016,09,13,10,52,16.60
2016,09,13,10,53,16.60
2016,09,13,10,54,16.70
2016,09,13,10,55,16.80
2016,09,13,10,56,16.80
2016,09,13,10,57,16.80
2016,09,13,10,58,16.80
2016,09,13,10,59,16.80
2016,09,13,11,00,16.80
2016,09,13,11,01,16.80
2016,09,13,11,02,16.70
2016,09,13,11,03,16.70
2016,09,13,11,04,16.60
2016,09,13,11,05,16.50
2016,09,13,11,06,16.40
2016,09,13,11,07,16.40
2016,09,13,11,08,16.50
2016,09,13,11,09,16.60
2016,09,13,11,10,16.60
2016,09,13,11,11,16.60
2016,09,13,11,12,16.60
2016,09,13,11,13,16.60
2016,09,13,11,14,16.60
2016,09,13,11,15,16.60
2016,09,13,11,16,16.50
2016,09,13,11,17,16.50
2016,09,13,11,18,16.50
2016,09,13,11,19,16.50
2016,09,13,11,20,16.50
2016,09,13,11,21,16.60
2016,09,13,11,22,16.60
2016,09,13,11,23,16.70
2016,09,13,11,24,16.70
2016,09,13,11,25,16.80
2016,09,13,11,26,16.80
2016,09,13,11,27,16.80
2016,09,13,11,28,16.90
2016,09,13,11,29,16.90
2016,09,13,11,30,16.90
2016,09,13,11,31,16.90
2016,09,13,11,32,16.90
2016,09,13,11,33,16.90
2016,09,13,11,34,16.90
2016,09,13,11,35,16.90
2016,09,13,11,36,16.90
2016,09,13,11,37,16.90
2016,09,13,11,38,16.90
2016,09,13,11,39,17.00
2016,09,13,11,40,17.00
2016,09,13,11,41,17.00
2016,09,13,11,42,17.00
2016,09,13,11,43,17.00
2016,09,13,11,44,17.00
2016,09,13,11,45,17.10
2016,09,13,11,46,17.00
2016,09,13,11,47,17.00
2016,09,13,11,48,17.00
2016,09,13,11,49,17.00
2016,09,13,11,50,17.00
2016,09,13,11,51,17.00
2016,09,13,11,52,17.10
2016,09,13,11,53,17.00
2016,09,13,11,54,17.00
2016,09,13,11,55,17.00
2016,09,13,11,56,17.00
2016,09,13,11,57,17.00
2016,09,13,11,58,17.00
2016,09,13,11,59,17.00
2016,09,13,12,00,17.10
2016,09,13,12,01,17.10
2016,09,13,12,02,17.10
2016,09,13,12,03,17.20
2016,09,13,12,04,17.20
2016,09,13,12,05,17.20
2016,09,13,12,06,17.20
2016,09,13,12,07,17.30
2016,09,13,12,08,17.40
2016,09,13,12,09,17.40
2016,09,13,12,10,17.50
2016,09,13,12,11,17.60
2016,09,13,12,12,17.60
2016,09,13,12,13,17.70
2016,09,13,12,14,17.70
2016,09,13,12,15,17.70
2016,09,13,12,16,17.70
2016,09,13,12,17,17.70
2016,09,13,12,18,17.70
2016,09,13,12,19,17.70
2016,09,13,12,20,17.60
2016,09,13,12,21,17.60
2016,09,13,12,22,17.60
2016,09,13,12,23,17.50
2016,09,13,12,24,17.50
2016,09,13,12,25,17.50
2016,09,13,12,26,17.50
2016,09,13,12,27,17.50
2016,09,13,12,28,17.60
2016,09,13,12,29,17.60
2016,09,13,12,30,17.60
2016,09,13,12,31,17.60
2016,09,13,12,32,17.60
2016,09,13,12,33,17.70
2016,09,13,12,34,17.70
2016,09,13,12,35,17.70
2016,09,13,12,36,17.70
2016,09,13,12,37,17.70
2016,09,13,12,38,17.70
2016,09,13,12,39,17.70
2016,09,13,12,40,17.80
2016,09,13,12,41,17.80
2016,09,13,12,42,17.90
2016,09,13,12,43,17.90
2016,09,13,12,44,17.80
2016,09,13,12,45,17.70
2016,09,13,12,46,17.70
2016,09,13,12,47,17.80
2016,09,13,12,48,17.80
2016,09,13,12,49,17.80
2016,09,13,12,50,17.80
2016,09,13,12,51,17.80
2016,09,13,12,52,17.70
2016,09,13,12,53,17.30
2016,09,13,12,54,16.90
2016,09,13,12,55,16.60
2016,09,13,12,56,16.50
2016,09,13,12,57,16.30
2016,09,13,12,58,16.30
2016,09,13,12,59,16.20
2016,09,13,13,00,16.20
2016,09,13,13,01,16.20
2016,09,13,13,02,16.30
2016,09,13,13,03,16.30
2016,09,13,13,04,16.30
2016,09,13,13,05,16.30
2016,09,13,13,06,16.30
2016,09,13,13,07,16.40
2016,09,13,13,08,16.40
2016,09,13,13,09,16.40
2016,09,13,13,10,16.40
2016,09,13,13,11,16.40
2016,09,13,13,12,16.40
2016,09,13,13,13,16.40
2016,09,13,13,14,16.40
2016,09,13,13,15,16.50
2016,09,13,13,16,16.60
2016,09,13,13,17,16.70
2016,09,13,13,18,16.80
2016,09,13,13,19,16.80
2016,09,13,13,20,16.90
2016,09,13,13,21,16.90
2016,09,13,13,22,16.90
2016,09,13,13,23,16.90
2016,09,13,13,24,16.80
2016,09,13,13,25,16.80
2016,09,13,13,26,16.80
2016,09,13,13,27,16.80
2016,09,13,13,28,16.80
2016,09,13,13,29,16.80
2016,09,13,13,30,16.80
2016,09,13,13,31,16.80
2016,09,13,13,32,16.70
2016,09,13,13,33,16.70
2016,09,13,13,34,16.70
2016,09,13,13,35,16.70
2016,09,13,13,36,16.60
2016,09,13,13,37,16.60
2016,09,13,13,38,16.60
2016,09,13,13,39,16.60
2016,09,13,13,40,16.60
2016,09,13,13,41,16.60
2016,09,13,13,42,16.60
2016,09,13,13,43,16.60
2016,09,13,13,44,16.60
2016,09,13,13,45,16.70
2016,09,13,13,46,16.70
2016,09,13,13,47,16.70
2016,09,13,13,48,16.70
2016,09,13,13,49,16.70
2016,09,13,13,50,16.70
2016,09,13,13,51,16.80
2016,09,13,13,52,16.80
2016,09,13,13,53,16.80
2016,09,13,13,54,16.80
2016,09,13,13,55,16.80
2016,09,13,13,56,16.80
2016,09,13,13,57,16.80
2016,09,13,13,58,16.90
2016,09,13,13,59,16.90
2016,09,13,14,00,16.90
2016,09,13,14,01,16.90
2016,09,13,14,02,17.00
2016,09,13,14,03,17.00
2016,09,13,14,04,17.10
2016,09,13,14,05,17.10
2016,09,13,14,06,17.20
2016,09,13,14,07,17.20
2016,09,13,14,08,17.30
2016,09,13,14,09,17.40
2016,09,13,14,10,17.40
2016,09,13,14,11,17.40
2016,09,13,14,12,17.50
2016,09,13,14,13,17.50
2016,09,13,14,14,17.50
2016,09,13,14,15,17.60
2016,09,13,14,16,17.60
2016,09,13,14,17,17.60
2016,09,13,14,18,17.70
2016,09,13,14,19,17.70
2016,09,13,14,20,17.70
2016,09,13,14,21,17.80
2016,09,13,14,22,17.80
2016,09,13,14,23,17.80
2016,09,13,14,24,17.80
2016,09,13,14,25,17.90
2016,09,13,14,26,17.90
2016,09,13,14,27,17.90
2016,09,13,14,28,17.90
2016,09,13,14,29,18.00
2016,09,13,14,30,18.00
2016,09,13,14,31,18.00
2016,09,13,14,32,18.10
2016,09,13,14,33,18.10
2016,09,13,14,34,18.00
2016,09,13,14,35,18.00
2016,09,13,14,36,18.00
2016,09,13,14,37,18.10
2016,09,13,14,38,18.10
2016,09,13,14,39,18.20
2016,09,13,14,40,18.20
2016,09,13,14,41,18.20
2016,09,13,14,42,18.30
2016,09,13,14,43,18.30
2016,09,13,14,44,18.30
2016,09,13,14,45,18.40
2016,09,13,14,46,18.40
2016,09,13,14,47,18.40
2016,09,13,14,48,18.50
2016,09,13,14,49,18.50
2016,09,13,14,50,18.60
2016,09,13,14,51,18.60
2016,09,13,14,52,18.60
2016,09,13,14,53,18.60
2016,09,13,14,54,18.60
2016,09,13,14,55,18.60
2016,09,13,14,56,18.60
2016,09,13,14,57,18.60
2016,09,13,14,58,18.50
2016,09,13,14,59,18.50
2016,09,13,15,00,18.40
2016,09,13,15,01,18.40
2016,09,13,15,02,18.40
2016,09,13,15,03,18.40
2016,09,13,15,04,18.40
2016,09,13,15,05,18.50
2016,09,13,15,06,18.50
2016,09,13,15,07,18.50
2016,09,13,15,08,18.60
2016,09,13,15,09,18.60
2016,09,13,15,10,18.60
2016,09,13,15,11,18.60
2016,09,13,15,12,18.60
2016,09,13,15,13,18.60
2016,09,13,15,14,18.60
2016,09,13,15,15,18.60
2016,09,13,15,16,18.50
2016,09,13,15,17,18.50
2016,09,13,15,18,18.40
2016,09,13,15,19,18.10
2016,09,13,15,20,17.80
2016,09,13,15,21,17.30
2016,09,13,15,22,17.00
2016,09,13,15,23,16.90
2016,09,13,15,24,16.90
2016,09,13,15,25,17.00
2016,09,13,15,26,17.10
2016,09,13,15,27,17.30
2016,09,13,15,28,17.50
2016,09,13,15,29,17.70
2016,09,13,15,30,17.90
2016,09,13,15,31,17.90
2016,09,13,15,32,17.50
2016,09,13,15,33,17.20
2016,09,13,15,34,17.10
2016,09,13,15,35,17.00
2016,09,13,15,36,16.80
2016,09,13,15,37,16.60
2016,09,13,15,38,16.50
2016,09,13,15,39,16.40
2016,09,13,15,40,16.20
2016,09,13,15,41,16.00
2016,09,13,15,42,15.90
2016,09,13,15,43,15.80
2016,09,13,15,44,15.80
2016,09,13,15,45,15.70
2016,09,13,15,46,15.70
2016,09,13,15,47,15.70
2016,09,13,15,48,15.70
2016,09,13,15,49,15.80
2016,09,13,15,50,15.80
2016,09,13,15,51,15.70
2016,09,13,15,52,15.50
2016,09,13,15,53,15.40
2016,09,13,15,54,15.20
2016,09,13,15,55,15.20
2016,09,13,15,56,15.20
2016,09,13,15,57,15.20
2016,09,13,15,58,15.20
2016,09,13,15,59,15.10
2016,09,13,16,00,15.00
2016,09,13,16,01,15.00
2016,09,13,16,02,15.10
2016,09,13,16,03,15.20
2016,09,13,16,04,15.40
2016,09,13,16,05,15.60
2016,09,13,16,06,15.60
2016,09,13,16,07,15.60
2016,09,13,16,08,15.80
2016,09,13,16,09,16.00
2016,09,13,16,10,16.20
2016,09,13,16,11,16.30
2016,09,13,16,12,16.60
2016,09,13,16,13,16.70
2016,09,13,16,14,16.60
2016,09,13,16,15,16.50
2016,09,13,16,16,16.50
2016,09,13,16,17,16.70
2016,09,13,16,18,16.80
2016,09,13,16,19,16.80
2016,09,13,16,20,16.60
2016,09,13,16,21,16.40
2016,09,13,16,22,16.20
2016,09,13,16,23,16.20
2016,09,13,16,24,16.30
2016,09,13,16,25,16.30
2016,09,13,16,26,16.30
2016,09,13,16,27,16.20
2016,09,13,16,28,16.10
2016,09,13,16,29,16.00
2016,09,13,16,30,15.90
2016,09,13,16,31,15.80
2016,09,13,16,32,15.70
2016,09,13,16,33,15.60
2016,09,13,16,34,15.50
2016,09,13,16,35,15.40
2016,09,13,16,36,15.40
2016,09,13,16,37,15.30
2016,09,13,16,38,15.30
2016,09,13,16,39,15.30
2016,09,13,16,40,15.30
2016,09,13,16,41,15.30
2016,09,13,16,42,15.20
2016,09,13,16,43,15.20
2016,09,13,16,44,15.20
2016,09,13,16,45,15.30
2016,09,13,16,46,15.40
2016,09,13,16,47,15.50
2016,09,13,16,48,15.60
2016,09,13,16,49,15.70
2016,09,13,16,50,15.80
2016,09,13,16,51,15.90
2016,09,13,16,52,16.00
2016,09,13,16,53,16.20
2016,09,13,16,54,16.30
2016,09,13,16,55,16.40
2016,09,13,16,56,16.50
2016,09,13,16,57,16.70
2016,09,13,16,58,16.70
2016,09,13,16,59,16.70
2016,09,13,17,00,16.70
2016,09,13,17,01,16.60
2016,09,13,17,02,16.50
2016,09,13,17,03,16.30
2016,09,13,17,04,16.20
2016,09,13,17,05,16.10
2016,09,13,17,06,16.00
2016,09,13,17,07,15.90
2016,09,13,17,08,15.80
2016,09,13,17,09,15.80
2016,09,13,17,10,15.70
2016,09,13,17,11,15.70
2016,09,13,17,12,15.70
2016,09,13,17,13,15.70
2016,09,13,17,14,15.70
2016,09,13,17,15,15.70
2016,09,13,17,16,15.70
2016,09,13,17,17,15.70
2016,09,13,17,18,15.80
2016,09,13,17,19,15.90